Time,TemperatureF,DewpointF,PressureIn,WindDirection,WindDirectionDegrees,WindSpeedMPH,WindSpeedGustMPH,Humidity,HourlyPrecipIn,Conditions,Clouds,dailyrainin,SoftwareType,DateUTC
2013-03-06 00:07:00,27.3,25.0,29.62,West,273,25.0,-999.0,90,-99.99,,,0.00,weatherlink.com 1.10,2013-03-06 05:07:00,
2013-03-06 00:22:00,26.7,24.0,29.60,West,273,24.0,-999.0,90,-99.99,,,0.00,weatherlink.com 1.10,2013-03-06 05:22:00,
2013-03-06 00:37:00,25.9,24.0,29.59,West,273,13.0,-999.0,93,-99.99,,,0.00,weatherlink.com 1.10,2013-03-06 05:37:00,
2013-03-06 00:52:00,25.3,23.0,29.59,West,273,42.0,-999.0,90,-99.99,,,0.00,weatherlink.com 1.10,2013-03-06 05:52:00,
2013-03-06 01:07:00,24.8,23.0,29.59,West,273,24.0,-999.0,91,-99.99,,,0.00,weatherlink.com 1.10,2013-03-06 06:07:00,
2013-03-06 01:22:00,24.4,23.0,29.59,West,273,31.0,-999.0,93,-99.99,,,0.00,weatherlink.com 1.10,2013-03-06 06:22:00,
2013-03-06 01:37:00,24.6,22.0,29.58,West,273,24.0,-999.0,91,-99.99,,,0.00,weatherlink.com 1.10,2013-03-06 06:37:00,
2013-03-06 01:52:00,24.7,22.0,29.59,West,273,25.0,-999.0,89,-99.99,,,0.00,weatherlink.com 1.10,2013-03-06 06:52:00,
2013-03-06 02:07:00,24.0,22.0,29.60,West,273,11.0,-999.0,92,-99.99,,,0.00,weatherlink.com 1.10,2013-03-06 07:07:00,
2013-03-06 02:22:00,23.6,22.0,29.61,West,273,18.0,-999.0,92,-99.99,,,0.00,weatherlink.com 1.10,2013-03-06 07:22:00,
2013-03-06 02:37:00,23.0,21.0,29.62,West,273,19.0,-999.0,92,-99.99,,,0.00,weatherlink.com 1.10,2013-03-06 07:37:00,
2013-03-06 02:52:00,22.7,20.0,29.62,West,273,22.0,-999.0,89,-99.99,,,0.00,weatherlink.com 1.10,2013-03-06 07:52:00,
2013-03-06 03:07:00,22.3,19.0,29.61,West,273,34.0,-999.0,87,-99.99,,,0.00,weatherlink.com 1.10,2013-03-06 08:07:00,
2013-03-06 03:22:00,21.9,19.0,29.62,West,273,12.0,-999.0,87,-99.99,,,0.00,weatherlink.com 1.10,2013-03-06 08:22:00,
2013-03-06 03:37:00,21.5,18.0,29.64,West,273,30.0,-999.0,86,-99.99,,,0.00,weatherlink.com 1.10,2013-03-06 08:37:00,
2013-03-06 03:52:00,20.9,19.0,29.64,West,273,17.0,-999.0,90,-99.99,,,0.00,weatherlink.com 1.10,2013-03-06 08:52:00,
2013-03-06 04:07:00,20.7,18.0,29.63,West,273,19.0,-999.0,90,-99.99,,,0.00,weatherlink.com 1.10,2013-03-06 09:07:00,
2013-03-06 04:22:00,20.4,18.0,29.64,West,273,16.0,-999.0,91,-99.99,,,0.00,weatherlink.com 1.10,2013-03-06 09:22:00,
2013-03-06 04:37:00,20.2,18.0,29.64,West,273,11.0,-999.0,92,-99.99,,,0.00,weatherlink.com 1.10,2013-03-06 09:37:00,
2013-03-06 04:52:00,20.1,18.0,29.64,West,273,15.0,-999.0,92,-99.99,,,0.00,weatherlink.com 1.10,2013-03-06 09:52:00,
2013-03-06 05:07:00,19.8,18.0,29.64,West,273,10.0,-999.0,93,-99.99,,,0.00,weatherlink.com 1.10,2013-03-06 10:07:00,
2013-03-06 05:22:00,19.2,18.0,29.64,West,273,20.0,-999.0,93,-99.99,,,0.00,weatherlink.com 1.10,2013-03-06 10:22:00,
2013-03-06 05:37:00,18.9,17.0,29.64,NNW,327,18.0,-999.0,92,-99.99,,,0.00,weatherlink.com 1.10,2013-03-06 10:37:00,
2013-03-06 05:52:00,18.9,17.0,29.64,NW,313,38.0,-999.0,93,-99.99,,,0.00,weatherlink.com 1.10,2013-03-06 10:52:00,
2013-03-06 06:07:00,18.9,17.0,29.64,NNW,330,27.0,-999.0,92,-99.99,,,0.00,weatherlink.com 1.10,2013-03-06 11:07:00,
2013-03-06 06:22:00,19.0,17.0,29.64,NW,317,20.0,-999.0,91,-99.99,,,0.00,weatherlink.com 1.10,2013-03-06 11:22:00,
2013-03-06 06:37:00,19.1,17.0,29.65,North,350,25.0,-999.0,91,-99.99,,,0.00,weatherlink.com 1.10,2013-03-06 11:37:00,
2013-03-06 06:52:00,19.1,17.0,29.66,NW,324,31.0,-999.0,91,-99.99,,,0.00,weatherlink.com 1.10,2013-03-06 11:52:00,
2013-03-06 07:07:00,19.2,17.0,29.66,NNW,341,21.0,-999.0,90,-99.99,,,0.00,weatherlink.com 1.10,2013-03-06 12:07:00,
2013-03-06 07:22:00,19.3,17.0,29.66,WNW,299,36.0,-999.0,90,-99.99,,,0.00,weatherlink.com 1.10,2013-03-06 12:22:00,
2013-03-06 07:37:00,19.4,17.0,29.65,NW,325,46.0,-999.0,90,-99.99,,,0.00,weatherlink.com 1.10,2013-03-06 12:37:00,
2013-03-06 07:52:00,19.4,17.0,29.66,NNW,328,24.0,-999.0,90,-99.99,,,0.00,weatherlink.com 1.10,2013-03-06 12:52:00,
2013-03-06 08:07:00,19.6,17.0,29.65,NW,310,33.0,-999.0,90,-99.99,,,0.00,weatherlink.com 1.10,2013-03-06 13:07:00,
2013-03-06 08:22:00,20.0,18.0,29.68,NW,319,37.0,-999.0,90,-99.99,,,0.00,weatherlink.com 1.10,2013-03-06 13:22:00,
2013-03-06 08:37:00,20.3,17.0,29.70,WNW,303,46.0,-999.0,88,-99.99,,,0.00,weatherlink.com 1.10,2013-03-06 13:37:00,
2013-03-06 08:52:00,20.5,18.0,29.72,North,355,36.0,-999.0,88,-99.99,,,0.00,weatherlink.com 1.10,2013-03-06 13:52:00,
2013-03-06 09:07:00,20.7,17.0,29.74,NW,321,34.0,-999.0,87,-99.99,,,0.00,weatherlink.com 1.10,2013-03-06 14:07:00,
2013-03-06 09:22:00,21.0,18.0,29.77,NNW,341,36.0,-999.0,88,-99.99,,,0.00,weatherlink.com 1.10,2013-03-06 14:22:00,
2013-03-06 09:37:00,21.1,18.0,29.74,NNW,330,26.0,-999.0,87,-99.99,,,0.00,weatherlink.com 1.10,2013-03-06 14:37:00,
2013-03-06 09:52:00,21.1,18.0,29.75,WNW,286,44.0,-999.0,87,-99.99,,,0.00,weatherlink.com 1.10,2013-03-06 14:52:00,
2013-03-06 10:07:00,21.2,18.0,29.75,NW,317,32.0,-999.0,87,-99.99,,,0.00,weatherlink.com 1.10,2013-03-06 15:07:00,
2013-03-06 10:22:00,21.7,18.0,29.80,NNW,333,25.0,-999.0,86,-99.99,,,0.00,weatherlink.com 1.10,2013-03-06 15:22:00,
2013-03-06 10:37:00,21.4,19.0,29.78,NW,304,27.0,-999.0,89,-99.99,,,0.00,weatherlink.com 1.10,2013-03-06 15:37:00,
2013-03-06 10:52:00,21.5,19.0,29.77,NW,316,23.0,-999.0,90,-99.99,,,0.00,weatherlink.com 1.10,2013-03-06 15:52:00,
2013-03-06 11:07:00,21.6,19.0,29.79,North,355,17.0,-999.0,91,-99.99,,,0.00,weatherlink.com 1.10,2013-03-06 16:07:00,
2013-03-06 11:22:00,21.6,19.0,29.81,NNW,347,35.0,-999.0,91,-99.99,,,0.00,weatherlink.com 1.10,2013-03-06 16:22:00,
2013-03-06 11:37:00,21.7,20.0,29.82,NNW,329,20.0,-999.0,91,-99.99,,,0.00,weatherlink.com 1.10,2013-03-06 16:37:00,
2013-03-06 11:52:00,22.0,20.0,29.82,WNW,286,19.0,-999.0,90,-99.99,,,0.00,weatherlink.com 1.10,2013-03-06 16:52:00,
2013-03-06 12:07:00,22.2,20.0,29.83,NW,304,20.0,-999.0,90,-99.99,,,0.00,weatherlink.com 1.10,2013-03-06 17:07:00,
2013-03-06 12:22:00,22.4,20.0,29.84,NW,312,26.0,-999.0,91,-99.99,,,0.00,weatherlink.com 1.10,2013-03-06 17:22:00,
2013-03-06 12:52:00,22.3,20.0,29.86,WNW,302,30.0,-999.0,91,-99.99,,,0.00,weatherlink.com 1.10,2013-03-06 17:52:00,
2013-03-06 13:07:00,22.0,20.0,29.87,WNW,300,18.0,-999.0,92,-99.99,,,0.00,weatherlink.com 1.10,2013-03-06 18:07:00,
2013-03-06 13:22:00,21.9,20.0,29.88,NW,314,34.0,-999.0,93,-99.99,,,0.00,weatherlink.com 1.10,2013-03-06 18:22:00,
2013-03-06 13:37:00,21.5,20.0,29.89,North,355,26.0,-999.0,93,-99.99,,,0.00,weatherlink.com 1.10,2013-03-06 18:37:00,
2013-03-06 13:52:00,21.6,20.0,29.89,WNW,294,15.0,-999.0,94,-99.99,,,0.00,weatherlink.com 1.10,2013-03-06 18:52:00,
2013-03-06 14:07:00,21.7,20.0,29.89,NW,319,27.0,-999.0,94,-99.99,,,0.00,weatherlink.com 1.10,2013-03-06 19:07:00,
2013-03-06 14:22:00,21.9,20.0,29.91,NW,310,20.0,-999.0,93,-99.99,,,0.00,weatherlink.com 1.10,2013-03-06 19:22:00,
2013-03-06 14:37:00,22.1,20.0,29.92,NW,313,18.0,-999.0,93,-99.99,,,0.00,weatherlink.com 1.10,2013-03-06 19:37:00,
2013-03-06 14:52:00,22.2,20.0,29.92,North,355,27.0,-999.0,92,-99.99,,,0.00,weatherlink.com 1.10,2013-03-06 19:52:00,
2013-03-06 15:07:00,21.7,20.0,29.94,NW,326,33.0,-999.0,94,-99.99,,,0.00,weatherlink.com 1.10,2013-03-06 20:07:00,
2013-03-06 15:22:00,21.6,20.0,29.95,WNW,302,40.0,-999.0,95,-99.99,,,0.00,weatherlink.com 1.10,2013-03-06 20:22:00,
2013-03-06 15:37:00,21.5,20.0,29.98,NNW,327,26.0,-999.0,95,-99.99,,,0.00,weatherlink.com 1.10,2013-03-06 20:37:00,
2013-03-06 15:52:00,21.4,20.0,29.98,NW,306,27.0,-999.0,95,-99.99,,,0.00,weatherlink.com 1.10,2013-03-06 20:52:00,
2013-03-06 16:07:00,21.5,20.0,29.99,NNW,332,12.0,-999.0,95,-99.99,,,0.00,weatherlink.com 1.10,2013-03-06 21:07:00,
2013-03-06 16:22:00,21.6,20.0,30.01,NW,322,19.0,-999.0,95,-99.99,,,0.00,weatherlink.com 1.10,2013-03-06 21:22:00,
2013-03-06 16:37:00,21.5,20.0,30.02,NNW,340,30.0,-999.0,95,-99.99,,,0.00,weatherlink.com 1.10,2013-03-06 21:37:00,
2013-03-06 16:52:00,21.5,20.0,30.04,North,355,15.0,-999.0,95,-99.99,,,0.00,weatherlink.com 1.10,2013-03-06 21:52:00,
2013-03-06 17:07:00,21.6,20.0,30.05,NNW,342,16.0,-999.0,95,-99.99,,,0.00,weatherlink.com 1.10,2013-03-06 22:07:00,
2013-03-06 17:22:00,21.6,20.0,30.06,NNW,341,26.0,-999.0,95,-99.99,,,0.00,weatherlink.com 1.10,2013-03-06 22:22:00,
2013-03-06 17:37:00,21.6,20.0,30.07,NW,323,22.0,-999.0,95,-99.99,,,0.00,weatherlink.com 1.10,2013-03-06 22:37:00,
2013-03-06 17:52:00,21.6,20.0,30.09,NNW,328,19.0,-999.0,95,-99.99,,,0.00,weatherlink.com 1.10,2013-03-06 22:52:00,
2013-03-06 18:22:00,21.7,21.0,30.10,NNE,16,12.0,-999.0,95,-99.99,,,0.00,weatherlink.com 1.10,2013-03-06 23:22:00,
2013-03-06 18:37:00,21.7,21.0,30.11,NNW,337,22.0,-999.0,95,-99.99,,,0.00,weatherlink.com 1.10,2013-03-06 23:37:00,
2013-03-06 18:52:00,21.7,21.0,30.10,NW,304,22.0,-999.0,95,-99.99,,,0.00,weatherlink.com 1.10,2013-03-06 23:52:00,
2013-03-06 19:07:00,21.6,20.0,30.11,North,9,17.0,-999.0,95,-99.99,,,0.00,weatherlink.com 1.10,2013-03-07 00:07:00,
2013-03-06 19:37:00,21.7,21.0,30.12,NNW,342,15.0,-999.0,95,-99.99,,,0.00,weatherlink.com 1.10,2013-03-07 00:37:00,
2013-03-06 19:52:00,21.6,20.0,30.13,North,9,17.0,-999.0,95,-99.99,,,0.00,weatherlink.com 1.10,2013-03-07 00:52:00,
2013-03-06 20:07:00,21.6,20.0,30.13,North,355,23.0,-999.0,95,-99.99,,,0.00,weatherlink.com 1.10,2013-03-07 01:07:00,
2013-03-06 20:22:00,21.6,21.0,30.12,NNE,13,12.0,-999.0,96,-99.99,,,0.00,weatherlink.com 1.10,2013-03-07 01:22:00,
2013-03-06 20:37:00,21.6,21.0,30.12,North,11,14.0,-999.0,96,-99.99,,,0.00,weatherlink.com 1.10,2013-03-07 01:37:00,
2013-03-06 20:52:00,21.6,21.0,30.12,NNW,327,16.0,-999.0,96,-99.99,,,0.00,weatherlink.com 1.10,2013-03-07 01:52:00,
2013-03-06 21:07:00,21.6,21.0,30.12,NE,44,8.0,-999.0,96,-99.99,,,0.00,weatherlink.com 1.10,2013-03-07 02:07:00,
2013-03-06 21:22:00,21.6,21.0,30.13,NNE,13,10.0,-999.0,96,-99.99,,,0.00,weatherlink.com 1.10,2013-03-07 02:22:00,
2013-03-06 21:37:00,21.6,21.0,30.12,NNE,30,7.0,-999.0,96,-99.99,,,0.00,weatherlink.com 1.10,2013-03-07 02:37:00,
2013-03-06 21:52:00,21.6,21.0,30.13,WNW,303,19.0,-999.0,96,-99.99,,,0.00,weatherlink.com 1.10,2013-03-07 02:52:00,
2013-03-06 22:07:00,21.6,21.0,30.13,NNW,334,18.0,-999.0,96,-99.99,,,0.00,weatherlink.com 1.10,2013-03-07 03:07:00,
2013-03-06 22:22:00,21.6,21.0,30.14,WNW,298,18.0,-999.0,96,-99.99,,,0.00,weatherlink.com 1.10,2013-03-07 03:22:00,
2013-03-06 22:37:00,21.6,21.0,30.16,NNW,327,22.0,-999.0,96,-99.99,,,0.00,weatherlink.com 1.10,2013-03-07 03:37:00,
2013-03-06 22:52:00,21.6,21.0,30.16,North,350,8.0,-999.0,96,-99.99,,,0.00,weatherlink.com 1.10,2013-03-07 03:52:00,
2013-03-06 23:07:00,21.6,21.0,30.16,NW,323,9.0,-999.0,96,-99.99,,,0.00,weatherlink.com 1.10,2013-03-07 04:07:00,
2013-03-06 23:22:00,21.6,21.0,30.16,NW,324,8.0,-999.0,96,-99.99,,,0.00,weatherlink.com 1.10,2013-03-07 04:22:00,
2013-03-06 23:37:00,21.5,21.0,30.17,NNW,328,10.0,-999.0,96,-99.99,,,0.00,weatherlink.com 1.10,2013-03-07 04:37:00,
2013-03-06 23:52:00,21.5,20.0,30.18,WNW,300,12.0,-999.0,95,-99.99,,,0.00,weatherlink.com 1.10,2013-03-07 04:52:00,